STARLINK-36445, 67313

Orbit data source: Space-Track

STARLINK-36445, 67313 is a payload satellite owned by SpaceX/Seattle (US) in LEO that was launched on Sun, 04 Jan 2026 UTC via an FALCON 9 launch vehicle from the Air Force Eastern Test Range (AFETR). Payload-class satellites include a variety of spacecraft equipped with specific instruments for various scientific and technological missions. These include communications satellites like Starlink; space stations such as the ISS; scientific satellites like the Hubble; Earth observation satellites from companies like Planet Labs, Umbra, and HawkEye 360; GPS; miniature CubeSats for education and research; and military/defense satellites.

Loading next visibility...
Identifier
67313, 2026-002J
Orbit
LEO
Country
Flag of USUS
Related business
Manufacturer
SpaceX/Seattle
Mission
Operational spacecraft
Bus & Motor
STARLINK V2MO, Unknown motor
Mass
575 kg wet, ~530 kg dry
Launch date (UTC)
2026-01-04 (2 weeks ago)
Launch vehicle
FALCON 9
Launch site
Air Force Eastern Test Range (AFETR)
Object type
Payload
Rocket body
Debris
Shape & HBR
Unknown shape, 17.7 m
Radar Cross Section
RCS unknown

Expand to show TLE details & history
Last TLE update: 11 hours ago

TLE from 11 hours ago
0 STARLINK-36445
1 67313U 26002J   26014.25002315 -.01182195  00000-0 -41240-2 0  9993
2 67313  42.9978 280.4635 0001920 279.4855 117.9104 15.90978163  2825
Epoch: 2026-01-14T06:00Z
TLE epoch observation values (Epoch: 2026-01-14T06:00:02.000Z)
Latitude
24.5677°
Longitude
105.91096°
Altitude
299.93 km
Speed
7.732 km/s
True Right ascension
20h 38m 33s
True Declination
24° 25' 44"
Sunlit
Object was in daylight at epoch
Visualization orbit readout
Latitude
Unknown
Longitude
Unknown
Altitude
Unknown
Speed
Unknown
Apparent Right ascension
Unknown
Apparent Declination
Unknown
Sunlit
N/A
Visualization observer readout
Local Sidereal Time
17:42:22
Azimuth
Unknown
Elevation
Unknown
Doppler factor
Unknown
Orbital elements
Apogee altitude
302.826 km
Perigee altitude
300.261 km
Semi-major axis
6,679.68 km
Eccentricity
0.00019
Inclination
42.9978°
RAAN
280.4635°
Arg. of periapsis
279.4855°
True anomaly
117.92984°
Mean anomaly
117.9104°
Eccentric anomaly
117.92012°
Mean motion
3.97566 °/min
Orbital period
90.55 mins
BSTAR
-0.004124
Loading maneuver chart data...
Computing Atmospheric mass density...
Loading historical data...
Loading historical data...
Loading historical data...
Loading historical data...
Loading historical data...
Loading historical data...
Loading historical data...

Documentation

Showing up to 5 results
|